Wind_Speed
7 6 6 5 5 4 4 3 3 2 3 4 3 2 3 2 2 2 1 1 2 2 2 3 4 4 5 5 6 7 8 9 10 11 12 12 13 13 13 13 13 13 13
8 7 6 6 5 5 4 4 3 3 4 4 4 3 2 2 1 2 1 1 1 2 2 3 3 4 5 6 6 7 8 8 9 11 12 13 13 14 14 13 13 13 13
8 8 7 6 6 5 5 4 3 4 4 4 4 3 3 2 2 1 1 1 2 3 3 3 4 5 6 7 7 7 8 8 9 11 12 13 14 14 14 14 14 14 14
9 8 8 7 7 6 5 4 4 4 4 4 4 3 2 2 2 2 2 2 3 4 4 5 6 6 6 7 7 8 9 9 10 11 12 13 14 14 15 14 15 15 15
9 9 8 7 7 6 5 4 4 5 5 4 4 3 2 2 2 3 3 4 4 4 5 6 7 7 7 8 8 9 9 10 10 11 12 13 14 14 15 16 16 16 16
8 8 8 8 7 6 6 5 5 5 6 5 4 4 3 3 3 4 5 5 5 6 7 7 8 9 9 10 10 10 10 11 11 12 12 13 14 15 15 17 17 16 16
8 8 8 8 8 7 7 7 7 6 6 5 5 5 5 5 5 6 7 7 7 8 8 9 9 10 11 11 11 11 11 11 12 13 13 13 14 15 15 16 17 17 17
8 8 9 8 8 8 8 7 7 7 6 6 5 6 6 7 7 8 8 8 9 9 10 10 11 11 12 12 12 12 13 13 13 14 14 14 15 16 16 17 18 18 17
9 9 9 9 9 8 8 8 8 7 7 6 6 6 7 8 9 9 9 10 10 10 11 12 12 13 13 13 13 14 14 14 15 15 15 16 16 17 17 17 17 17 17
9 9 9 9 9 9 9 9 9 8 8 8 8 8 9 10 10 10 10 11 11 12 12 12 13 13 14 14 14 15 15 15 15 16 17 18 18 18 18 18 18 18 18
10 10 10 10 10 10 10 10 10 9 9 9 9 10 10 11 11 11 12 12 13 13 14 14 13 14 14 14 15 15 15 16 16 16 17 17 18 18 18 18 19 19 19
11 11 11 11 11 11 11 12 11 10 10 11 11 11 12 12 13 13 13 13 14 15 15 15 15 15 15 15 16 16 15 16 17 17 17 16 17 18 19 19 20 21 21
12 12 12 12 12 12 12 12 12 12 13 13 13 13 14 14 14 14 14 15 15 16 17 17 17 17 17 17 17 17 17 17 17 18 17 18 18 19 19 20 21 22 22
13 13 13 13 13 13 14 13 13 14 14 15 15 15 15 16 16 17 17 17 18 18 18 18 18 18 18 18 18 19 19 19 19 20 19 19 20 20 20 22 22 23 23
15 14 15 15 15 15 15 15 15 15 16 16 17 16 17 17 18 18 19 19 20 19 19 19 20 20 19 20 20 20 20 21 21 21 21 21 22 22 22 23 23 23 23
16 16 17 17 17 17 16 17 17 17 17 17 18 18 18 18 19 20 20 21 21 21 20 20 21 22 22 22 22 22 22 22 21 22 22 23 23 23 23 23 24 24 25
18 18 19 18 18 18 18 18 19 19 19 19 20 20 20 20 21 22 23 23 23 23 22 22 23 23 24 24 23 23 23 23 22 23 23 24 24 24 24 23 24 25 25
20 21 21 21 20 20 20 20 20 20 21 21 21 22 22 22 23 24 24 25 24 24 24 23 24 25 25 25 24 25 25 24 24 24 25 25 24 24 24 24 25 25 26
22 23 22 22 21 21 21 21 21 22 22 22 23 23 24 25 25 25 25 25 25 26 25 25 24 24 25 25 26 25 26 26 26 26 25 25 25 25 25 25 25 25 25
23 24 23 22 22 22 22 23 23 24 24 24 25 25 26 26 26 25 25 26 26 26 26 26 25 25 25 26 27 27 27 27 27 27 27 26 26 25 25 24 25 25 25
24 24 24 24 24 24 24 25 25 25 25 25 25 26 26 26 26 26 26 26 26 26 26 26 26 26 26 26 27 27 28 27 27 26 26 26 26 26 25 25 24 24 25
25 24 24 25 25 25 26 26 27 27 26 26 26 27 27 27 27 27 27 26 26 26 26 27 27 27 27 27 28 28 29 28 26 26 26 26 26 26 26 25 25 25 26
25 24 25 26 26 26 27 27 27 27 26 27 27 27 28 28 28 28 28 28 28 28 28 28 28 28 28 28 28 28 29 28 27 27 26 25 25 25 26 26 25 26 26
25 25 26 26 27 27 28 28 28 28 28 28 28 28 28 28 28 29 29 28 28 28 29 29 28 28 28 28 28 28 27 27 27 27 26 25 25 25 26 27 27 27 26
27 27 27 27 28 28 29 29 29 29 28 28 28 28 28 28 28 29 29 29 29 29 29 29 29 28 28 28 28 26 25 24 25 25 26 26 25 25 26 26 27 27 26
28 28 29 30 30 30 30 30 30 30 29 29 28 28 28 28 28 28 29 29 29 29 29 28 28 28 27 27 26 24 24 24 24 25 25 26 25 25 25 26 27 27 26
Wind_Direction
57 61 59 54 53 58 61 49 32 23 10 8 5 350 334 314 288 336 340 282 280 286 287 293 290 279 271 275 273 265 262 260 254 249 249 246 245 246 246 245 249 250 249
58 58 55 49 46 51 47 33 29 12 18 14 2 341 345 338 1 43 47 2 292 281 296 298 294 283 273 273 276 276 272 265 259 252 253 253 251 245 244 246 249 251 252
50 52 49 43 37 39 35 38 27 7 7 9 3 354 8 15 36 39 19 335 316 303 295 297 295 291 283 280 277 276 275 269 262 259 258 256 253 249 245 248 247 252 252
46 46 44 39 34 33 36 33 19 4 358 359 355 1 8 8 12 338 323 329 319 312 305 297 293 288 284 280 279 276 274 273 270 266 261 255 254 254 249 250 251 253 253
37 37 35 31 30 29 28 21 13 3 0 355 351 354 359 8 347 324 317 316 309 304 300 296 294 292 288 282 280 280 279 275 272 271 266 261 259 257 253 252 252 255 254
32 27 25 24 22 20 15 12 7 359 355 348 344 339 334 333 328 315 316 315 311 301 299 296 294 292 289 285 281 281 279 277 273 270 265 262 262 260 259 254 251 252 253
22 19 17 15 12 8 8 7 2 357 352 341 334 325 323 323 319 317 312 311 308 306 305 301 298 297 290 285 281 280 277 275 275 272 269 266 265 262 259 255 252 254 255
10 11 7 4 0 358 356 357 353 348 345 342 337 332 325 314 310 309 308 304 305 305 305 302 302 297 292 286 281 283 279 276 275 274 272 269 266 263 258 257 256 255 256
2 357 356 353 351 348 345 343 343 337 334 331 327 324 323 317 315 309 303 302 302 302 304 302 299 297 293 289 285 285 283 281 278 277 275 273 270 266 262 259 255 253 254
350 348 345 344 340 336 334 335 333 332 333 330 326 322 319 314 310 311 308 304 304 303 301 302 300 297 295 292 290 288 286 286 283 280 276 272 268 265 261 259 257 256 255
345 344 341 339 334 330 328 327 324 321 323 325 323 320 318 315 311 307 307 304 303 304 305 303 301 298 295 294 291 289 287 288 285 281 278 275 269 264 263 261 260 259 257
341 339 338 335 332 326 323 321 317 313 313 315 316 314 311 312 312 308 307 305 304 305 304 303 299 298 298 297 294 289 288 289 285 279 275 273 269 267 266 263 262 261 261
333 331 331 328 324 320 319 318 317 313 311 310 309 309 307 306 305 306 304 302 301 301 300 300 299 297 298 297 295 290 289 289 287 282 276 272 268 268 268 264 263 261 260
322 325 326 323 319 314 312 311 311 312 308 306 305 306 304 301 300 302 302 300 299 298 297 296 296 294 294 294 293 289 289 288 287 283 281 277 274 275 272 267 266 263 262
318 320 319 315 312 310 309 307 307 307 308 308 306 303 303 300 297 299 298 298 299 298 297 296 294 293 292 290 289 288 287 285 284 282 280 279 278 279 276 270 267 266 265
312 314 313 311 309 308 308 307 305 303 304 306 307 304 300 299 297 298 298 298 297 295 295 296 294 292 291 290 289 288 288 286 285 284 281 282 282 280 277 273 269 266 264
310 310 309 308 308 307 307 307 306 304 303 303 304 302 300 300 299 298 297 297 297 294 292 294 293 291 290 289 288 287 286 285 285 285 282 282 282 280 277 273 270 267 265
306 306 308 309 308 307 305 305 304 303 302 300 300 300 300 301 299 298 297 297 296 294 292 291 292 292 290 288 287 286 286 284 283 283 282 281 280 279 276 274 271 268 266
303 305 306 307 306 306 305 304 303 302 301 299 297 298 299 300 300 298 297 298 297 295 294 294 292 291 289 287 286 286 285 285 283 282 281 280 279 278 277 274 272 270 267
302 302 301 302 303 303 304 302 301 301 301 300 298 298 299 299 299 297 298 298 297 295 294 293 293 293 290 288 285 284 285 284 283 281 280 279 279 278 276 274 272 269 266
301 301 300 300 300 300 300 300 299 301 302 300 299 298 299 301 300 299 299 299 298 296 295 293 293 293 293 292 289 288 287 285 284 282 280 280 279 276 273 272 272 269 267
298 298 299 299 298 298 299 299 300 300 301 300 299 298 298 299 301 300 300 299 299 298 298 295 294 293 293 293 292 291 289 286 284 284 283 281 280 277 275 274 271 268 267
297 297 298 298 298 298 299 299 299 299 299 300 298 297 297 298 299 300 300 300 299 300 301 299 295 294 295 292 292 292 291 288 285 283 281 280 279 279 276 274 274 272 269
297 297 297 297 297 298 299 299 299 299 299 298 298 298 298 298 298 299 299 300 301 301 300 298 296 295 294 293 292 291 291 288 285 283 280 279 280 278 278 275 273 272 271
298 298 297 297 297 297 298 298 298 298 297 297 297 298 298 298 298 298 298 300 301 301 300 299 298 296 295 294 295 294 292 291 288 284 282 280 279 278 277 276 273 272 272
298 298 298 298 297 297 297 297 297 296 296 296 296 296 297 299 300 299 299 300 300 301 301 301 300 298 296 295 296 295 293 291 290 286 283 281 280 277 275 275 273 271 271
Height
5874 5873 5873 5872 5872 5871 5870 5870 5869 5869 5868 5867 5867 5866 5864 5863 5862 5861 5861 5861 5861 5860 5860 5859 5859 5858 5858 5858 5858 5857 5857 5857 5856 5856 5857 5858 5858 5859 5859 5860 5861 5861 5862
5876 5875 5874 5873 5872 5871 5871 5870 5870 5869 5868 5867 5866 5865 5864 5863 5862 5861 5861 5860 5860 5860 5859 5858 5858 5857 5856 5856 5856 5855 5855 5854 5854 5854 5854 5855 5855 5856 5856 5857 5858 5858 5859
5877 5876 5875 5874 5873 5872 5871 5870 5870 5869 5868 5867 5866 5865 5864 5863 5862 5862 5861 5860 5860 5859 5858 5857 5856 5856 5855 5854 5854 5853 5852 5852 5852 5851 5851 5852 5852 5853 5853 5854 5854 5855 5855
5878 5877 5876 5875 5873 5872 5871 5870 5870 5869 5867 5867 5866 5865 5864 5863 5863 5862 5861 5860 5859 5858 5857 5856 5855 5854 5853 5852 5851 5851 5850 5850 5849 5849 5848 5849 5849 5849 5850 5850 5851 5851 5852
5878 5878 5877 5875 5874 5873 5872 5871 5870 5868 5867 5866 5865 5865 5864 5863 5862 5861 5860 5859 5857 5857 5856 5855 5853 5852 5851 5850 5849 5848 5847 5847 5846 5846 5845 5845 5845 5846 5846 5847 5847 5848 5848
5879 5878 5877 5875 5874 5873 5872 5871 5869 5868 5867 5866 5865 5864 5863 5862 5861 5860 5859 5857 5856 5855 5854 5853 5852 5850 5849 5848 5847 5846 5845 5844 5843 5843 5842 5842 5842 5842 5842 5843 5843 5844 5844
5880 5878 5877 5875 5874 5873 5871 5870 5869 5868 5866 5865 5864 5863 5862 5861 5860 5859 5857 5856 5854 5853 5852 5851 5849 5848 5847 5845 5844 5843 5842 5841 5840 5839 5839 5838 5838 5838 5838 5838 5839 5839 5840
5880 5878 5877 5875 5874 5872 5871 5870 5868 5867 5866 5864 5863 5862 5860 5860 5858 5856 5855 5853 5852 5851 5850 5848 5847 5845 5843 5842 5841 5840 5839 5837 5836 5835 5835 5834 5834 5833 5833 5834 5834 5835 5835
5879 5878 5876 5875 5873 5872 5870 5869 5867 5866 5864 5863 5861 5860 5859 5857 5855 5854 5852 5851 5849 5848 5847 5846 5844 5842 5840 5839 5838 5836 5835 5833 5832 5831 5830 5829 5829 5829 5828 5829 5829 5830 5830
5879 5877 5875 5874 5872 5871 5869 5867 5866 5864 5863 5861 5859 5858 5857 5855 5854 5852 5851 5849 5847 5845 5844 5843 5841 5839 5837 5835 5834 5832 5831 5829 5827 5826 5825 5823 5823 5823 5824 5824 5824 5825 5825
5878 5876 5874 5872 5870 5869 5867 5865 5864 5862 5860 5859 5857 5856 5854 5853 5851 5850 5848 5846 5844 5842 5840 5839 5837 5835 5833 5831 5829 5828 5826 5824 5822 5821 5819 5817 5818 5818 5818 5819 5819 5820 5820
5876 5874 5872 5870 5869 5867 5865 5863 5861 5859 5858 5856 5855 5853 5851 5850 5848 5847 5845 5843 5841 5839 5837 5835 5833 5831 5829 5827 5825 5823 5821 5820 5818 5816 5815 5814 5813 5813 5813 5813 5813 5814 5814
5875 5873 5870 5868 5866 5864 5863 5861 5859 5857 5855 5853 5851 5850 5848 5847 5845 5843 5841 5839 5837 5836 5833 5831 5829 5826 5825 5823 5820 5818 5816 5815 5813 5811 5810 5809 5808 5807 5807 5807 5807 5807 5807
5872 5870 5868 5866 5864 5862 5860 5858 5856 5854 5852 5850 5848 5846 5844 5843 5841 5839 5837 5835 5833 5831 5828 5826 5824 5822 5820 5818 5816 5814 5812 5810 5808 5806 5805 5803 5802 5802 5800 5801 5801 5801 5801
5869 5867 5865 5863 5861 5859 5857 5855 5853 5851 5848 5846 5844 5842 5840 5838 5836 5834 5832 5830 5828 5826 5823 5821 5819 5816 5814 5812 5810 5808 5806 5804 5802 5800 5799 5797 5796 5795 5794 5794 5794 5794 5794
5866 5864 5862 5859 5858 5856 5853 5851 5849 5846 5844 5842 5840 5838 5835 5833 5831 5829 5827 5825 5823 5820 5818 5815 5813 5810 5808 5806 5804 5802 5799 5797 5796 5794 5792 5791 5790 5789 5788 5787 5786 5786 5786
5862 5860 5858 5856 5854 5852 5849 5847 5845 5842 5840 5837 5835 5833 5830 5828 5826 5823 5821 5818 5816 5813 5811 5809 5806 5804 5801 5799 5797 5795 5792 5790 5789 5787 5785 5784 5783 5781 5780 5780 5779 5778 5778
5858 5856 5853 5851 5849 5847 5844 5842 5840 5837 5835 5832 5830 5827 5825 5822 5820 5817 5815 5812 5809 5807 5804 5802 5799 5796 5794 5792 5790 5788 5785 5783 5781 5780 5778 5777 5775 5774 5773 5772 5771 5770 5770
5853 5851 5849 5846 5844 5841 5839 5837 5834 5832 5829 5827 5824 5822 5819 5816 5814 5811 5808 5805 5802 5800 5797 5795 5792 5789 5787 5784 5782 5780 5778 5776 5774 5772 5770 5769 5767 5766 5765 5764 5763 5762 5762
5848 5846 5843 5841 5838 5836 5833 5831 5828 5825 5823 5821 5818 5815 5813 5810 5807 5804 5801 5798 5795 5793 5790 5787 5785 5782 5779 5777 5775 5773 5771 5768 5766 5764 5762 5761 5759 5758 5756 5755 5755 5754 5754
5842 5839 5837 5834 5832 5829 5827 5824 5821 5819 5816 5814 5811 5808 5805 5803 5800 5797 5794 5791 5788 5785 5782 5780 5777 5774 5772 5769 5767 5765 5762 5760 5758 5756 5754 5753 5751 5750 5748 5747 5746 5746 5746
5835 5833 5831 5828 5825 5823 5820 5817 5815 5812 5809 5806 5804 5801 5798 5795 5792 5789 5786 5783 5780 5778 5775 5772 5769 5766 5764 5761 5758 5756 5754 5752 5750 5749 5746 5745 5743 5742 5740 5739 5738 5738 5738
5828 5826 5824 5821 5819 5816 5813 5810 5807 5805 5802 5799 5796 5793 5790 5788 5785 5782 5779 5776 5773 5770 5767 5764 5761 5758 5755 5753 5750 5748 5745 5743 5741 5740 5738 5737 5736 5734 5733 5731 5730 5730 5729
5822 5819 5817 5814 5812 5809 5806 5803 5800 5797 5794 5792 5789 5786 5783 5780 5777 5774 5771 5768 5765 5762 5759 5756 5754 5751 5748 5745 5742 5740 5737 5735 5733 5731 5730 5729 5728 5727 5725 5724 5723 5722 5721
5815 5812 5810 5807 5804 5802 5798 5795 5792 5789 5786 5783 5781 5778 5775 5772 5769 5766 5764 5761 5758 5755 5751 5748 5745 5742 5740 5737 5734 5732 5729 5727 5725 5723 5722 5721 5720 5719 5718 5717 5715 5714 5713
5808 5805 5802 5799 5796 5794 5790 5787 5784 5781 5779 5776 5773 5770 5767 5764 5762 5758 5756 5753 5750 5746 5743 5740 5737 5734 5732 5729 5726 5724 5721 5719 5717 5716 5714 5713 5712 5711 5710 5709 5707 5706 5705